User: anonymous   Login
Location: Unspecified
(0.0000°N, 0.0000°E)
Time: 12:35:25
(UTC+00:00)
Language:

STPSAT 2 (USA 217) - Orbit

View from above orbital plane
View from above orbital plane
View from above satellite
View from above satellite

Ground track
Ground track

The orbit data is extracted from the following two-line orbital elements,

1 37222U 10062A   18146.90007930 0.00000000  00000-0  00000-0 0    06
2 37222  71.9651 201.1366 0015500 224.5868 135.4131 14.78357656    02
Epoch (UTC): 26 May 2018 21:36:06
Eccentricity: 0.0015500
inclination: 71.9651°
perigee height: 623 km
apogee height: 645 km
right ascension of ascending node: 201.1366°
argument of perigee: 224.5868°
revolutions per day: 14.78357656
mean anomaly at epoch: 135.4131°
orbit number at epoch: 0

The dashed part of the orbit path shows where the satellite is in the earth's shadow,  

DLR